Regional Weather Roundup
Issued by NWS Midland/Odessa, TX

Skip options and go directly to product.
Home | Oldest Version | Previous Version | Current Version | All | Text Only | Save Text | Print | Product List | Glossary On

Skip product version selection by date and time.   
461
ASUS44 KMAF 231110
RWRMAF
MIDLAND AREA WEATHER ROUNDUP
NATIONAL WEATHER SERVICE MIDLAND TX
600 AM CDT SAT AUG 23 2014

...IN SOUTHWEST TEXAS AND SOUTHEAST NEW MEXICO...

CITY           SKY/WX    TMP DP  RH WIND       PRES   REMARKS
ALPINE         CLOUDY    66  61  84 W5        30.16F
ANDREWS        MOCLDY    75  47  36 S7        30.04R
ARTESIA        NOT AVBL
BIG SPRING     PTCLDY    75  56  50 SE14      30.05S
CARLSBAD       MOCLDY    71  65  81 SE6       30.00F
DRYDEN           N/A     75  50  41 NE7       29.98S
FORT STOCKTON  CLOUDY    75  53  46 S6        30.02F
GUAD PASS      PTCLDY    64  58  80 W9        30.17F
HOBBS          NOT AVBL
MARFA          CLOUDY    64  63  94 NE3       30.16S
MIDLAND AIRPK  PTCLDY    76  46  33 S10       30.03S
MIDLAND INTL   MOCLDY    73  49  42 SE10      30.02F
ODESSA         MOCLDY    76  46  34 S13       30.03S
PECOS          CLOUDY    70  67  89 CALM      30.00S
PRESIDIO       FAIR      73  67  81 NW5       30.02S
SEMINOLE       CLOUDY    71  60  68 CALM      30.05S
SNYDER         MOCLDY    72  55  55 S7        30.04R
WINK           CLOUDY    73  68  84 CALM      30.00R
$$
...OTHER STATIONS IN TEXAS...

CITY           SKY/WX    TMP DP  RH WIND       PRES   REMARKS
ABILENE        CLEAR     75  60  59 S5        30.02R
AMARILLO       CLOUDY    71  61  70 SW14      30.01F
AUSTIN         PTCLDY    72  71  97 SW3       30.01S
BROWNSVILLE    MOCLDY    79  77  94 CALM      29.95F
CORPUS CHRISTI PTCLDY    74  72  93 SE7       29.97S
DALLAS FTW     CLEAR     81  67  62 SW12      29.97S
DEL RIO        PTCLDY    78  67  68 E6        29.97R
EL PASO        MOCLDY    68  61  78 CALM      30.07S
HOUSTON INT    CLEAR     76  74  93 CALM      30.00R
LUBBOCK        MOCLDY    72  56  57 SE8       30.03S
SAN ANGELO     PTCLDY    76  64  66 S8        30.02R
SAN ANTONIO    CLOUDY    79  73  82 S9        30.02S
WACO           CLEAR     76  71  85 S8        30.00R
WICHITA FALLS  NOT AVBL
$$
...OTHER LOCATIONS IN NEW MEXICO...

CITY           SKY/WX    TMP DP  RH WIND       PRES   REMARKS
ALAMAGORDO     MOCLDY    59  59 100 NE3       30.10S
ALBUQUERQUE    PTCLDY    59  55  87 N3        30.17R
CANNON AFB     PTCLDY    65  63  92 SW5       30.08S
CLOVIS           N/A     64  59  82 SW3       30.10S
HOLLOMAN AFB   PTCLDY    63  63 100 N3        30.08S
ROSWELL        PTCLDY    66  61  84 VRB3      30.03S
RUIDOSO        PTCLDY    55  52  88 W6        30.25S
SANTA FE       FOG       49  48  97 S5        30.19F VSB 3/4
TRUTH OR CONSE CLEAR     61  57  87 CALM      30.12R
TUCUMCARI      PTCLDY    69  56  62 SW7       30.03R
$$

USA.gov is the U.S. government's official web portal to all federal, state and local government web resources and services.